This is the latest recevied weather packets stored in our database for station/object DB0MOD. If no packets are shown the sender has not sent any weather packets the latest 10 day(s).
| Time | Temp. | Humidity | Pressure | Rain* | Wind** | Luminosity | Snow |
|---|---|---|---|---|---|---|---|
| 1777843149 | 13.33° C | 39% | 1014.8 hPa | 0 mm | - | - | - |
| 1777842849 | 13.33° C | 40% | 1014.7 hPa | 0 mm | - | - | - |
| 1777842549 | 13.33° C | 40% | 1014.7 hPa | 0 mm | - | - | - |
| 1777842249 | 13.33° C | 40% | 1014.6 hPa | 0 mm | - | - | - |
| 1777841949 | 13.33° C | 42% | 1014.6 hPa | 0 mm | - | - | - |
| 1777841649 | 13.33° C | 43% | 1014.6 hPa | 0 mm | - | - | - |
| 1777841349 | 13.33° C | 44% | 1014.4 hPa | 0 mm | - | - | - |
| 1777841049 | 13.33° C | 44% | 1014.4 hPa | 0 mm | - | - | - |
| 1777840749 | 13.89° C | 45% | 1014.3 hPa | 0 mm | - | - | - |
| 1777840449 | 13.89° C | 46% | 1014.3 hPa | 0 mm | - | - | - |
| 1777840149 | 14.44° C | 46% | 1014.3 hPa | 0 mm | - | - | - |
| 1777839849 | 14.44° C | 46% | 1014.3 hPa | 0 mm | - | - | - |
| 1777839249 | 15° C | 46% | 1014.2 hPa | 0 mm | - | - | - |
| 1777838949 | 15° C | 46% | 1014.2 hPa | 0 mm | - | - | - |
| 1777838649 | 15° C | 46% | 1014.3 hPa | 0 mm | - | - | - |
| 1777838349 | 15.56° C | 46% | 1014.2 hPa | 0 mm | - | - | - |
| 1777838049 | 15.56° C | 46% | 1014.4 hPa | 0 mm | - | - | - |
| 1777837449 | 16.11° C | 46% | 1014.4 hPa | 0 mm | - | - | - |
| 1777837149 | 16.67° C | 46% | 1014.2 hPa | 0 mm | - | - | - |
| 1777836849 | 16.67° C | 46% | 1014.2 hPa | 0 mm | - | - | - |
| 1777836249 | 17.22° C | 46% | 1014.4 hPa | 0 mm | - | - | - |
| 1777835949 | 17.22° C | 44% | 1014.2 hPa | 0 mm | - | - | - |
| 1777835649 | 17.78° C | 44% | 1014.1 hPa | 0 mm | - | - | - |
| 1777835349 | 17.22° C | 43% | 1014.2 hPa | 0 mm | - | - | - |
| 1777835050 | 17.22° C | 43% | 1014 hPa | 0 mm | - | - | - |
* Rain latest hour (hover to see other rain measurements)
** Current wind speed in m/s (hover to see current wind gust speed)